QPF
0.00 0.00 0.01 0.01 0.00 0.00 0.00 0.00 0.00 0.00 0.00 0.00 0.00 0.00 0.00 0.00 0.00 0.00 0.00 0.00 0.00 0.00 0.00 0.00 0.00 0.00 0.00 0.00 0.00 0.00 0.00 0.00 0.00 0.00 0.00 0.00 0.00 0.00 0.00 0.00 0.00 0.00 0.00 0.00 0.00 0.00 0.00
0.00 0.00 0.00 0.00 0.00 0.00 0.00 0.00 0.00 0.00 0.00 0.00 0.00 0.00 0.00 0.00 0.00 0.00 0.00 0.00 0.00 0.00 0.00 0.00 0.00 0.00 0.00 0.00 0.00 0.00 0.00 0.00 0.00 0.00 0.00 0.00 0.00 0.00 0.00 0.00 0.00 0.00 0.00 0.00 0.00 0.00 0.00
0.00 0.00 0.00 0.00 0.00 0.00 0.00 0.00 0.00 0.00 0.00 0.00 0.00 0.00 0.00 0.00 0.00 0.00 0.00 0.00 0.00 0.00 0.00 0.00 0.00 0.00 0.00 0.00 0.00 0.00 0.00 0.00 0.00 0.00 0.00 0.00 0.00 0.00 0.00 0.00 0.00 0.00 0.00 0.00 0.00 0.00 0.00
0.00 0.00 0.00 0.00 0.00 0.00 0.00 0.00 0.00 0.00 0.00 0.00 0.00 0.00 0.00 0.00 0.00 0.00 0.00 0.00 0.00 0.00 0.00 0.00 0.00 0.00 0.00 0.00 0.00 0.00 0.00 0.00 0.00 0.00 0.00 0.00 0.00 0.00 0.00 0.00 0.00 0.00 0.00 0.00 0.00 0.00 0.00
0.00 0.00 0.00 0.00 0.00 0.00 0.00 0.00 0.00 0.00 0.00 0.00 0.00 0.00 0.00 0.00 0.00 0.00 0.00 0.00 0.00 0.00 0.00 0.00 0.00 0.00 0.00 0.00 0.00 0.00 0.00 0.00 0.00 0.00 0.00 0.00 0.00 0.00 0.00 0.00 0.00 0.00 0.00 0.00 0.00 0.00 0.00
0.00 0.00 0.00 0.00 0.00 0.00 0.00 0.00 0.00 0.00 0.00 0.00 0.00 0.00 0.00 0.00 0.00 0.00 0.00 0.00 0.00 0.00 0.00 0.00 0.00 0.00 0.00 0.00 0.00 0.00 0.00 0.00 0.00 0.00 0.00 0.00 0.00 0.00 0.00 0.00 0.00 0.00 0.00 0.00 0.00 0.00 0.00
0.00 0.00 0.00 0.00 0.00 0.00 0.00 0.00 0.00 0.00 0.00 0.00 0.00 0.00 0.00 0.00 0.00 0.00 0.00 0.00 0.00 0.00 0.00 0.00 0.00 0.00 0.00 0.00 0.00 0.00 0.00 0.00 0.00 0.00 0.00 0.00 0.00 0.00 0.00 0.00 0.00 0.00 0.00 0.00 0.00 0.00 0.00
0.00 0.00 0.00 0.00 0.00 0.00 0.00 0.00 0.00 0.00 0.00 0.00 0.00 0.00 0.00 0.00 0.00 0.00 0.00 0.00 0.00 0.00 0.00 0.00 0.00 0.00 0.00 0.00 0.00 0.00 0.00 0.00 0.00 0.00 0.00 0.00 0.00 0.00 0.00 0.00 0.00 0.00 0.00 0.00 0.00 0.00 0.00
0.00 0.00 0.00 0.00 0.00 0.00 0.00 0.00 0.00 0.00 0.00 0.00 0.00 0.00 0.00 0.00 0.00 0.00 0.00 0.00 0.00 0.00 0.00 0.00 0.00 0.00 0.00 0.00 0.00 0.00 0.00 0.00 0.00 0.00 0.00 0.00 0.00 0.00 0.00 0.00 0.00 0.00 0.00 0.00 0.00 0.00 0.00
0.00 0.00 0.00 0.00 0.00 0.00 0.00 0.00 0.00 0.00 0.01 0.00 0.00 0.00 0.00 0.00 0.00 0.00 0.00 0.00 0.00 0.00 0.00 0.00 0.00 0.00 0.00 0.00 0.00 0.00 0.00 0.00 0.00 0.00 0.00 0.00 0.00 0.00 0.00 0.00 0.00 0.00 0.00 0.00 0.00 0.00 0.00
0.00 0.00 0.00 0.00 0.00 0.00 0.00 0.00 0.00 0.00 0.01 0.00 0.00 0.00 0.00 0.00 0.00 0.00 0.00 0.00 0.00 0.00 0.00 0.00 0.00 0.00 0.00 0.00 0.00 0.00 0.00 0.00 0.00 0.00 0.00 0.00 0.00 0.00 0.00 0.00 0.00 0.00 0.00 0.00 0.00 0.00 0.01
0.01 0.00 0.00 0.00 0.00 0.00 0.00 0.00 0.00 0.01 0.02 0.01 0.00 0.00 0.00 0.00 0.00 0.00 0.00 0.00 0.01 0.00 0.00 0.00 0.00 0.00 0.00 0.00 0.00 0.00 0.00 0.00 0.00 0.00 0.00 0.00 0.00 0.00 0.00 0.00 0.00 0.00 0.00 0.00 0.00 0.00 0.01
0.01 0.01 0.00 0.00 0.00 0.00 0.00 0.00 0.00 0.01 0.03 0.02 0.00 0.00 0.00 0.00 0.00 0.00 0.00 0.02 0.01 0.00 0.00 0.00 0.00 0.00 0.00 0.00 0.00 0.00 0.00 0.00 0.00 0.00 0.00 0.00 0.00 0.00 0.00 0.00 0.00 0.00 0.00 0.00 0.01 0.00 0.00
0.01 0.01 0.01 0.01 0.00 0.00 0.00 0.00 0.00 0.01 0.02 0.03 0.00 0.00 0.00 0.00 0.00 0.00 0.01 0.05 0.00 0.00 0.00 0.00 0.00 0.00 0.00 0.00 0.00 0.00 0.00 0.00 0.00 0.00 0.00 0.00 0.00 0.00 0.00 0.00 0.00 0.00 0.00 0.00 0.05 0.03 0.00
0.01 0.02 0.02 0.02 0.01 0.00 0.00 0.00 0.00 0.01 0.04 0.04 0.00 0.00 0.00 0.00 0.00 0.00 0.03 0.03 0.00 0.00 0.00 0.00 0.00 0.00 0.00 0.00 0.00 0.00 0.00 0.00 0.00 0.00 0.00 0.02 0.00 0.00 0.00 0.00 0.00 0.00 0.00 0.00 0.00 0.01 0.00
0.02 0.02 0.03 0.03 0.02 0.01 0.00 0.00 0.00 0.02 0.06 0.05 0.00 0.00 0.00 0.00 0.00 0.00 0.03 0.01 0.00 0.00 0.00 0.00 0.00 0.00 0.00 0.00 0.00 0.00 0.00 0.00 0.00 0.00 0.00 0.03 0.05 0.00 0.00 0.00 0.00 0.00 0.00 0.00 0.00 0.00 0.00
0.04 0.03 0.02 0.02 0.02 0.01 0.00 0.00 0.01 0.03 0.08 0.03 0.00 0.00 0.00 0.00 0.00 0.00 0.02 0.00 0.00 0.00 0.00 0.00 0.00 0.00 0.00 0.00 0.00 0.00 0.00 0.00 0.00 0.00 0.00 0.00 0.01 0.00 0.00 0.00 0.00 0.00 0.00 0.00 0.00 0.00 0.00
0.04 0.05 0.02 0.01 0.01 0.02 0.02 0.01 0.01 0.05 0.08 0.05 0.01 0.01 0.00 0.00 0.00 0.00 0.00 0.00 0.00 0.00 0.00 0.00 0.00 0.00 0.00 0.00 0.00 0.00 0.00 0.00 0.00 0.00 0.00 0.00 0.00 0.00 0.00 0.00 0.00 0.00 0.00 0.00 0.00 0.00 0.00
0.03 0.03 0.03 0.03 0.02 0.02 0.02 0.02 0.03 0.07 0.08 0.03 0.01 0.05 0.05 0.01 0.00 0.01 0.00 0.00 0.00 0.00 0.00 0.00 0.00 0.00 0.00 0.00 0.00 0.00 0.00 0.00 0.00 0.00 0.00 0.00 0.00 0.00 0.00 0.00 0.00 0.00 0.00 0.00 0.00 0.00 0.00
0.02 0.02 0.02 0.04 0.03 0.02 0.02 0.02 0.06 0.10 0.10 0.05 0.01 0.06 0.09 0.04 0.00 0.00 0.00 0.00 0.00 0.00 0.00 0.00 0.00 0.00 0.00 0.00 0.00 0.00 0.00 0.00 0.00 0.00 0.00 0.00 0.00 0.00 0.00 0.00 0.00 0.00 0.00 0.00 0.00 0.00 0.00
0.03 0.06 0.02 0.02 0.03 0.02 0.02 0.03 0.06 0.11 0.13 0.07 0.03 0.01 0.01 0.01 0.00 0.00 0.00 0.00 0.00 0.00 0.00 0.00 0.00 0.00 0.00 0.00 0.00 0.00 0.00 0.00 0.00 0.00 0.00 0.00 0.00 0.00 0.00 0.00 0.00 0.00 0.00 0.00 0.00 0.00 0.00
0.04 0.08 0.04 0.02 0.01 0.02 0.02 0.04 0.07 0.10 0.16 0.09 0.02 0.00 0.00 0.00 0.00 0.00 0.00 0.00 0.00 0.00 0.00 0.00 0.00 0.00 0.00 0.00 0.00 0.00 0.00 0.00 0.00 0.00 0.00 0.00 0.00 0.00 0.00 0.00 0.00 0.00 0.00 0.00 0.00 0.00 0.00
0.02 0.08 0.06 0.03 0.01 0.01 0.01 0.04 0.11 0.12 0.19 0.06 0.00 0.00 0.00 0.01 0.00 0.00 0.00 0.00 0.00 0.00 0.00 0.00 0.00 0.00 0.00 0.00 0.00 0.00 0.00 0.00 0.00 0.00 0.00 0.00 0.00 0.00 0.00 0.00 0.00 0.00 0.00 0.00 0.00 0.00 0.00
0.01 0.06 0.06 0.03 0.02 0.01 0.01 0.06 0.16 0.16 0.11 0.00 0.00 0.03 0.04 0.03 0.00 0.00 0.00 0.00 0.00 0.00 0.00 0.00 0.00 0.00 0.00 0.00 0.00 0.00 0.00 0.01 0.00 0.00 0.00 0.00 0.00 0.00 0.00 0.00 0.00 0.00 0.00 0.00 0.00 0.00 0.00
0.00 0.02 0.03 0.03 0.02 0.01 0.01 0.09 0.17 0.19 0.06 0.01 0.04 0.05 0.04 0.03 0.00 0.00 0.00 0.00 0.00 0.00 0.00 0.00 0.00 0.00 0.00 0.00 0.00 0.00 0.00 0.00 0.00 0.00 0.00 0.00 0.00 0.00 0.00 0.00 0.00 0.00 0.00 0.00 0.00 0.00 0.00
0.00 0.01 0.01 0.02 0.01 0.01 0.03 0.09 0.16 0.14 0.03 0.03 0.05 0.09 0.08 0.02 0.00 0.00 0.00 0.00 0.00 0.00 0.01 0.00 0.00 0.00 0.00 0.00 0.00 0.00 0.00 0.00 0.00 0.00 0.00 0.00 0.00 0.00 0.00 0.00 0.00 0.00 0.00 0.00 0.00 0.00 0.00
0.01 0.01 0.02 0.02 0.02 0.03 0.06 0.09 0.11 0.04 0.00 0.03 0.05 0.18 0.21 0.02 0.00 0.00 0.00 0.00 0.00 0.00 0.01 0.00 0.00 0.00 0.00 0.00 0.00 0.00 0.00 0.00 0.00 0.00 0.00 0.00 0.00 0.00 0.00 0.00 0.00 0.00 0.00 0.00 0.00 0.00 0.00
0.01 0.01 0.02 0.02 0.04 0.05 0.05 0.05 0.05 0.01 0.00 0.05 0.09 0.17 0.27 0.01 0.00 0.00 0.00 0.00 0.00 0.00 0.02 0.00 0.00 0.00 0.00 0.00 0.00 0.00 0.00 0.00 0.00 0.00 0.00 0.00 0.00 0.00 0.00 0.00 0.00 0.00 0.00 0.00 0.00 0.00 0.00
0.00 0.02 0.05 0.05 0.07 0.04 0.03 0.02 0.01 0.00 0.00 0.09 0.14 0.04 0.08 0.06 0.00 0.00 0.00 0.00 0.00 0.00 0.00 0.00 0.00 0.00 0.00 0.00 0.00 0.01 0.00 0.00 0.00 0.00 0.00 0.00 0.00 0.00 0.00 0.00 0.00 0.00 0.00 0.00 0.00 0.00 0.00
MSLP
1018.83 1018.81 1018.76 1018.76 1018.57 1018.45 1018.54 1018.60 1018.78 1018.90 1018.99 1019.02 1019.19 1019.03 1018.91 1018.73 1018.61 1018.52 1018.29 1018.19 1018.10 1017.66 1017.54 1017.24 1017.01 1016.43 1016.04 1013.59 1009.83 1008.80 1009.24 1009.63 1009.83 1009.78 1009.21 1008.04 1007.49 1007.13 1006.48 1005.75 1005.53 1005.83 1005.44 1005.21 1005.88 1006.04 1006.14
1018.42 1018.43 1018.43 1018.40 1018.37 1018.18 1018.10 1018.22 1018.37 1018.54 1018.68 1018.88 1018.89 1018.91 1018.72 1018.59 1018.43 1018.34 1018.12 1018.00 1017.83 1017.47 1017.59 1017.25 1016.87 1016.61 1015.86 1011.44 1007.24 1008.16 1008.91 1009.45 1009.22 1009.48 1008.77 1007.78 1007.05 1006.49 1006.11 1005.31 1005.26 1005.47 1005.38 1005.45 1005.48 1005.46 1005.98
1018.03 1018.03 1018.09 1017.98 1017.96 1017.89 1017.82 1017.81 1017.96 1018.13 1018.35 1018.55 1018.66 1018.67 1018.57 1018.37 1018.33 1018.13 1017.99 1017.76 1017.72 1017.31 1017.32 1017.35 1016.94 1016.31 1014.27 1010.04 1007.35 1007.64 1008.52 1008.63 1008.52 1008.81 1007.92 1007.62 1007.05 1006.82 1006.12 1005.58 1005.21 1005.36 1005.57 1005.77 1005.45 1005.53 1005.59
1017.47 1017.54 1017.60 1017.65 1017.58 1017.54 1017.54 1017.44 1017.47 1017.75 1017.97 1018.23 1018.29 1018.38 1018.38 1018.29 1018.24 1017.94 1017.78 1017.61 1017.51 1017.27 1017.26 1017.14 1016.75 1015.73 1012.36 1007.94 1007.92 1007.59 1007.53 1007.77 1008.13 1007.90 1007.85 1007.32 1007.44 1007.20 1006.94 1006.58 1005.78 1005.64 1005.44 1006.05 1005.96 1005.43 1005.14
1016.82 1016.90 1017.04 1017.18 1017.22 1017.20 1017.16 1017.17 1017.03 1017.22 1017.54 1017.85 1018.04 1018.13 1018.29 1018.24 1018.07 1017.88 1017.76 1017.52 1017.35 1017.15 1017.12 1017.01 1016.01 1014.58 1010.37 1007.92 1007.56 1006.86 1006.88 1006.98 1006.83 1007.32 1007.40 1007.59 1008.07 1007.72 1007.42 1007.14 1006.17 1005.58 1005.53 1006.43 1006.32 1005.52 1005.13
1016.21 1016.29 1016.42 1016.52 1016.66 1016.78 1016.78 1016.71 1016.71 1016.75 1017.09 1017.47 1017.71 1017.90 1018.10 1018.09 1017.96 1017.72 1017.70 1017.49 1017.10 1017.13 1016.73 1015.76 1014.43 1013.39 1009.69 1006.95 1006.04 1006.06 1006.24 1006.81 1006.84 1007.21 1007.76 1008.02 1008.04 1007.55 1007.18 1006.56 1006.13 1005.85 1005.92 1005.80 1005.43 1005.06 1004.94
1015.39 1015.56 1015.83 1015.94 1016.04 1016.18 1016.28 1016.12 1016.22 1016.39 1016.60 1016.96 1017.35 1017.63 1017.89 1017.86 1017.87 1017.74 1017.85 1017.09 1016.47 1015.81 1014.65 1011.78 1010.15 1009.20 1007.02 1006.12 1005.97 1006.05 1005.86 1006.36 1006.56 1007.18 1007.36 1007.35 1007.48 1007.07 1006.56 1006.47 1006.21 1005.91 1005.54 1005.12 1004.78 1004.88 1005.14
1014.55 1014.71 1014.94 1015.20 1015.46 1015.52 1015.62 1015.52 1015.56 1015.92 1016.18 1016.51 1016.93 1017.36 1017.57 1017.80 1017.76 1017.87 1017.63 1015.60 1012.26 1012.39 1011.36 1009.86 1009.07 1008.19 1007.35 1006.78 1006.02 1005.53 1005.36 1005.80 1006.14 1006.46 1006.62 1007.18 1007.15 1006.95 1007.05 1006.66 1006.24 1005.70 1005.12 1004.64 1004.87 1005.26 1005.44
1013.66 1013.84 1014.01 1014.34 1014.64 1014.79 1014.82 1014.93 1015.04 1015.33 1015.76 1016.16 1016.59 1016.98 1017.30 1017.53 1017.66 1017.88 1016.16 1014.27 1011.95 1012.30 1010.62 1007.61 1007.40 1007.24 1006.56 1006.14 1005.70 1004.98 1005.10 1005.29 1005.63 1005.93 1006.60 1007.56 1007.75 1006.79 1006.61 1006.35 1005.91 1005.19 1005.03 1005.46 1005.31 1005.77 1005.94
1012.63 1012.90 1013.14 1013.43 1013.69 1013.91 1014.14 1014.28 1014.62 1014.77 1015.23 1015.64 1016.23 1016.81 1017.11 1017.46 1017.87 1015.37 1014.39 1012.97 1012.92 1013.34 1010.64 1006.71 1006.26 1006.02 1005.82 1005.54 1005.18 1004.62 1004.50 1004.95 1005.11 1006.05 1006.31 1007.96 1007.13 1006.43 1006.20 1005.66 1005.46 1005.91 1006.29 1005.77 1006.37 1006.63 1006.45
1011.58 1011.94 1012.28 1012.55 1012.88 1013.08 1013.40 1013.76 1013.97 1014.30 1014.64 1015.08 1015.68 1016.43 1016.81 1016.79 1015.15 1013.95 1012.35 1011.87 1011.95 1012.35 1009.29 1005.01 1004.91 1004.75 1004.86 1005.13 1004.42 1004.56 1005.06 1005.25 1005.30 1005.41 1006.50 1006.40 1006.11 1005.97 1005.71 1005.46 1005.39 1006.44 1006.03 1006.34 1006.03 1006.48 1006.75
1010.52 1010.85 1011.17 1011.60 1012.11 1012.30 1012.66 1013.09 1013.48 1013.74 1014.14 1014.47 1015.16 1015.87 1016.72 1017.21 1016.09 1014.04 1013.46 1012.86 1012.46 1011.10 1007.40 1004.62 1004.14 1004.59 1004.62 1004.75 1004.39 1004.06 1004.92 1005.46 1005.18 1005.73 1005.93 1006.69 1006.10 1005.60 1005.68 1005.54 1005.53 1005.94 1006.44 1006.43 1006.26 1006.69 1007.37
1009.35 1009.77 1010.20 1010.53 1011.06 1011.41 1011.87 1012.19 1012.81 1013.16 1013.65 1013.98 1014.69 1015.46 1016.13 1015.25 1013.69 1012.89 1013.54 1013.20 1011.87 1008.69 1005.50 1004.23 1003.96 1004.45 1004.49 1004.44 1004.40 1004.42 1004.81 1005.18 1005.30 1005.87 1005.99 1006.32 1005.72 1005.20 1005.28 1005.16 1005.47 1005.64 1006.01 1006.45 1007.38 1007.72 1007.16
1008.17 1008.62 1008.91 1009.34 1009.80 1010.26 1010.89 1011.42 1011.99 1012.59 1013.14 1013.61 1014.30 1015.25 1015.54 1014.86 1013.56 1013.70 1013.52 1012.92 1009.63 1006.68 1004.82 1003.34 1003.72 1004.02 1004.11 1003.92 1004.12 1004.26 1004.43 1004.73 1005.19 1005.41 1005.63 1005.93 1005.48 1005.19 1005.15 1004.85 1005.68 1005.78 1005.91 1006.64 1008.83 1010.24 1008.31
1006.91 1007.59 1007.92 1008.19 1008.57 1008.99 1009.83 1010.47 1011.29 1011.89 1012.60 1013.48 1014.06 1015.05 1014.92 1014.39 1014.46 1014.18 1013.37 1011.19 1007.82 1004.96 1004.04 1003.13 1003.34 1003.49 1003.58 1003.29 1003.71 1003.92 1003.98 1004.26 1004.29 1004.78 1005.81 1007.40 1007.39 1006.01 1005.29 1005.15 1005.39 1005.25 1005.51 1006.16 1007.48 1009.14 1008.52
1005.63 1006.25 1006.92 1007.17 1007.62 1007.90 1008.66 1009.54 1010.48 1011.19 1012.01 1013.02 1013.09 1013.91 1012.91 1013.24 1014.04 1014.17 1012.56 1009.29 1006.71 1004.30 1002.96 1002.73 1002.73 1002.98 1002.90 1002.97 1003.65 1003.60 1003.70 1003.58 1003.58 1003.95 1005.15 1008.67 1009.47 1007.02 1005.99 1006.00 1005.68 1005.87 1006.08 1006.41 1007.30 1008.17 1008.14
1004.35 1004.92 1005.56 1005.99 1006.81 1007.34 1007.66 1008.59 1009.58 1010.47 1011.26 1012.28 1011.71 1011.84 1009.30 1011.78 1013.38 1012.96 1010.18 1007.72 1006.02 1003.87 1002.86 1002.50 1002.57 1002.64 1002.43 1002.62 1003.23 1003.21 1003.16 1003.07 1003.72 1004.24 1005.03 1005.86 1007.95 1006.31 1006.41 1005.84 1005.28 1005.71 1006.09 1006.64 1007.32 1007.93 1008.24
1003.06 1003.77 1004.32 1004.90 1005.85 1006.56 1007.08 1007.74 1008.62 1009.56 1010.62 1011.68 1010.35 1009.98 1008.64 1010.50 1011.44 1009.99 1008.59 1006.76 1005.26 1003.47 1003.00 1002.97 1002.56 1002.22 1002.23 1002.14 1002.73 1003.08 1003.63 1003.69 1003.64 1004.32 1005.18 1005.67 1005.93 1005.94 1005.69 1005.27 1005.29 1005.46 1005.61 1006.24 1007.28 1008.26 1008.28
1001.94 1002.43 1003.22 1003.97 1004.80 1005.69 1006.30 1006.85 1007.67 1008.66 1009.35 1009.91 1008.87 1008.98 1009.33 1008.58 1007.94 1007.42 1007.56 1006.03 1004.53 1003.46 1002.88 1003.16 1002.66 1002.32 1002.13 1002.20 1002.57 1003.16 1003.53 1004.93 1004.96 1005.03 1005.84 1005.91 1006.27 1006.33 1005.94 1005.78 1005.66 1005.75 1005.82 1006.04 1006.63 1007.87 1008.17
1000.42 1001.39 1002.23 1003.00 1004.01 1004.84 1005.37 1005.94 1006.78 1007.61 1008.42 1008.91 1007.79 1007.50 1007.90 1008.19 1006.56 1006.14 1005.98 1004.92 1003.96 1003.20 1002.57 1002.68 1002.64 1002.27 1002.27 1002.41 1002.65 1003.30 1003.84 1005.39 1005.75 1005.91 1006.74 1006.83 1006.75 1006.70 1006.59 1005.98 1005.70 1005.55 1005.82 1005.88 1006.47 1007.32 1007.77
999.47 1000.46 1001.24 1002.06 1002.83 1003.99 1004.55 1004.96 1005.86 1006.68 1007.73 1008.60 1006.18 1004.19 1004.02 1004.94 1005.04 1004.61 1004.86 1003.97 1003.10 1002.53 1002.52 1002.16 1002.39 1002.42 1002.53 1002.67 1002.84 1003.46 1004.02 1005.48 1006.19 1006.84 1007.21 1007.45 1007.57 1007.55 1007.00 1006.33 1006.35 1006.11 1005.68 1005.73 1005.90 1006.40 1006.83
998.63 999.57 1000.36 1001.18 1001.87 1003.02 1003.59 1004.23 1004.97 1005.86 1007.06 1007.70 1004.45 1002.37 1002.67 1003.23 1004.40 1004.14 1003.51 1002.81 1001.97 1001.90 1002.18 1002.06 1002.06 1002.23 1002.52 1002.66 1003.02 1003.41 1003.94 1004.98 1005.88 1007.08 1007.33 1007.79 1008.26 1008.51 1008.29 1007.67 1007.14 1006.76 1006.26 1005.85 1005.72 1005.61 1005.67
997.77 998.58 999.49 1000.23 1001.13 1001.87 1002.46 1003.42 1004.28 1005.09 1006.58 1005.59 1003.67 1002.16 1001.28 1002.34 1002.96 1003.08 1001.97 1001.83 1001.35 1001.52 1001.59 1001.71 1002.10 1002.19 1002.47 1002.87 1003.24 1004.08 1004.25 1004.49 1005.17 1006.38 1007.26 1007.94 1008.95 1009.64 1009.60 1009.38 1008.74 1007.86 1006.69 1006.12 1005.78 1005.44 1005.34
997.04 997.82 998.64 998.83 999.86 1000.97 1001.75 1002.66 1003.67 1004.64 1005.29 1003.94 1002.94 1002.10 1001.66 1001.26 1001.29 1000.90 1001.56 1001.16 1000.84 1001.02 1001.33 1001.74 1001.91 1001.91 1003.58 1003.82 1004.40 1005.10 1005.56 1006.11 1006.28 1007.00 1007.11 1008.66 1009.64 1010.36 1010.98 1011.04 1009.50 1007.20 1006.26 1005.90 1005.70 1005.39 1005.14
996.39 997.19 997.87 998.57 999.52 1000.35 1001.31 1002.21 1003.24 1004.06 1005.05 1004.86 1002.94 1003.03 1002.32 1001.09 1000.36 1001.14 1000.95 1000.36 1000.61 1000.84 1001.15 1002.11 1003.18 1002.89 1003.49 1004.25 1005.77 1006.78 1007.25 1007.72 1007.65 1007.74 1008.25 1008.90 1010.06 1011.07 1011.60 1010.92 1009.12 1007.60 1006.64 1006.57 1006.22 1006.14 1006.14
996.05 996.81 997.53 998.27 999.13 999.95 1001.01 1001.98 1003.10 1004.03 1004.54 1004.86 1003.88 1003.55 1002.95 1001.32 999.30 999.45 999.53 999.70 1000.02 1000.70 1002.09 1003.87 1004.18 1004.17 1004.20 1005.24 1006.10 1006.69 1007.17 1007.31 1007.76 1008.55 1009.12 1009.82 1010.45 1011.28 1011.82 1011.21 1009.71 1007.98 1007.62 1007.42 1007.02 1007.00 1007.37
995.87 996.61 997.27 998.03 998.83 999.72 1000.79 1001.82 1003.01 1003.81 1004.06 1004.80 1003.66 1003.76 1003.35 1001.55 999.10 998.70 998.77 999.31 999.96 1000.95 1002.50 1004.10 1005.15 1005.46 1005.52 1006.14 1007.06 1007.08 1007.22 1007.03 1007.61 1008.37 1009.64 1010.46 1010.82 1011.40 1011.48 1011.11 1009.59 1007.76 1007.81 1007.84 1007.85 1008.61 1008.38
995.60 996.30 996.97 997.69 998.63 999.84 1000.81 1001.66 1002.53 1003.25 1003.95 1004.57 1003.22 1002.94 1001.95 1000.37 998.53 998.35 999.07 999.60 999.95 1000.61 1002.16 1003.78 1004.93 1005.08 1005.57 1006.34 1006.94 1007.30 1007.65 1007.57 1007.58 1007.82 1008.77 1009.43 1010.17 1010.70 1010.82 1010.76 1009.55 1008.14 1008.17 1008.32 1008.50 1008.58 1008.76
995.36 995.97 996.57 997.54 998.46 999.36 1000.19 1001.14 1001.78 1002.67 1003.72 1004.46 1003.96 1002.86 1001.08 1001.38 999.85 999.51 1000.08 1000.33 1000.41 1000.61 1001.66 1003.26 1003.06 1003.83 1004.62 1005.21 1006.36 1007.38 1008.20 1008.53 1008.49 1008.30 1007.85 1008.36 1008.54 1009.01 1009.42 1009.00 1008.50 1008.09 1008.16 1008.18 1008.55 1009.01 1009.31
Thickness
5608 5612 5615 5619 5623 5626 5628 5629 5630 5632 5632 5633 5633 5636 5637 5638 5638 5636 5636 5635 5633 5632 5629 5627 5626 5630 5631 5644 5661 5680 5675 5671 5668 5667 5664 5669 5668 5669 5666 5685 5693 5684 5699 5712 5707 5709 5714
5601 5604 5607 5611 5615 5619 5623 5624 5626 5627 5628 5628 5629 5631 5633 5634 5634 5633 5633 5632 5631 5630 5625 5624 5624 5625 5627 5642 5694 5683 5675 5670 5670 5665 5666 5674 5675 5682 5677 5689 5689 5696 5700 5701 5710 5713 5708
5593 5596 5599 5603 5608 5613 5616 5619 5621 5622 5624 5624 5625 5626 5628 5630 5629 5630 5629 5630 5628 5628 5625 5620 5621 5625 5633 5656 5692 5687 5678 5674 5674 5667 5669 5678 5685 5679 5686 5683 5703 5698 5686 5694 5703 5707 5706
5585 5589 5592 5596 5600 5605 5610 5614 5617 5618 5619 5620 5621 5622 5624 5625 5625 5626 5627 5627 5625 5625 5622 5620 5621 5627 5639 5688 5686 5685 5685 5678 5678 5679 5677 5684 5685 5678 5678 5687 5689 5684 5691 5666 5690 5703 5714
5576 5581 5584 5588 5592 5597 5602 5607 5611 5613 5615 5615 5616 5618 5618 5618 5621 5621 5622 5623 5623 5622 5620 5618 5626 5632 5649 5688 5678 5689 5690 5678 5684 5682 5682 5683 5675 5669 5673 5665 5670 5683 5668 5662 5673 5701 5707
5566 5570 5575 5580 5584 5589 5594 5600 5605 5609 5610 5610 5611 5613 5613 5614 5615 5617 5618 5618 5620 5619 5620 5623 5634 5631 5660 5675 5690 5692 5696 5687 5679 5676 5668 5666 5664 5661 5666 5667 5649 5663 5666 5675 5678 5698 5707
5558 5563 5566 5571 5576 5581 5585 5593 5598 5602 5606 5607 5607 5608 5609 5610 5610 5612 5612 5618 5625 5626 5629 5652 5664 5661 5679 5692 5696 5686 5695 5685 5683 5672 5655 5669 5655 5651 5668 5675 5680 5684 5684 5685 5700 5709 5700
5550 5555 5560 5565 5569 5576 5581 5588 5593 5596 5600 5602 5603 5603 5606 5604 5606 5605 5607 5621 5649 5645 5640 5660 5664 5668 5677 5683 5670 5683 5699 5677 5673 5662 5673 5663 5650 5671 5675 5677 5679 5686 5688 5694 5703 5705 5700
5540 5546 5552 5557 5563 5569 5578 5583 5588 5592 5594 5596 5597 5599 5600 5601 5601 5601 5614 5625 5646 5642 5640 5670 5672 5666 5672 5682 5669 5679 5692 5685 5674 5669 5665 5644 5652 5677 5676 5676 5675 5691 5690 5685 5689 5695 5699
5529 5536 5544 5550 5556 5563 5570 5577 5580 5586 5588 5591 5591 5591 5593 5595 5595 5615 5618 5633 5634 5630 5628 5660 5664 5668 5675 5679 5667 5695 5700 5688 5681 5662 5669 5639 5668 5675 5676 5679 5689 5663 5683 5691 5679 5669 5666
5517 5524 5532 5540 5547 5555 5561 5567 5573 5578 5582 5586 5586 5585 5587 5592 5610 5616 5634 5636 5636 5629 5609 5673 5670 5691 5682 5668 5678 5678 5696 5681 5668 5675 5666 5661 5675 5673 5674 5680 5691 5666 5686 5684 5694 5686 5683
5504 5513 5520 5528 5535 5544 5552 5558 5564 5571 5576 5580 5581 5581 5580 5582 5592 5612 5616 5623 5623 5611 5609 5658 5672 5662 5661 5666 5672 5684 5678 5687 5688 5673 5676 5661 5683 5686 5680 5689 5692 5691 5680 5684 5692 5687 5648
5492 5500 5508 5516 5524 5534 5542 5550 5555 5563 5568 5573 5575 5575 5576 5585 5601 5612 5610 5609 5603 5607 5666 5658 5659 5661 5658 5657 5663 5668 5665 5661 5657 5646 5652 5666 5676 5692 5695 5682 5691 5687 5676 5654 5639 5638 5648
5478 5487 5498 5507 5515 5525 5533 5540 5547 5553 5559 5564 5567 5567 5570 5579 5596 5598 5600 5595 5605 5640 5653 5679 5667 5662 5651 5665 5663 5665 5663 5657 5671 5670 5663 5656 5653 5682 5693 5689 5663 5673 5677 5651 5596 5591 5637
5461 5469 5482 5495 5506 5516 5523 5532 5537 5544 5550 5553 5558 5558 5565 5576 5581 5587 5589 5590 5620 5653 5665 5667 5665 5653 5654 5671 5667 5665 5665 5663 5676 5681 5655 5630 5633 5671 5686 5691 5686 5677 5669 5689 5656 5632 5644
5435 5452 5464 5479 5493 5507 5515 5523 5529 5536 5541 5546 5555 5556 5573 5574 5574 5576 5585 5605 5634 5663 5674 5673 5652 5661 5654 5664 5656 5661 5663 5680 5681 5691 5687 5617 5600 5652 5674 5679 5684 5673 5683 5657 5660 5627 5624
5403 5426 5445 5463 5475 5490 5505 5512 5519 5527 5536 5539 5555 5559 5590 5574 5569 5574 5590 5616 5636 5663 5672 5663 5658 5659 5668 5665 5664 5664 5670 5687 5685 5681 5683 5674 5635 5656 5664 5662 5666 5666 5660 5664 5664 5655 5629
5377 5396 5419 5442 5457 5471 5487 5499 5509 5519 5527 5531 5557 5558 5581 5573 5569 5590 5597 5624 5642 5655 5666 5660 5665 5671 5668 5677 5666 5665 5656 5672 5691 5685 5665 5676 5665 5644 5658 5679 5685 5676 5670 5666 5634 5635 5641
5358 5372 5392 5415 5435 5452 5469 5486 5498 5509 5522 5536 5558 5559 5563 5579 5581 5593 5605 5622 5639 5646 5654 5652 5657 5668 5677 5670 5660 5667 5673 5665 5673 5674 5663 5670 5654 5632 5644 5662 5672 5661 5669 5673 5669 5647 5633
5358 5358 5369 5388 5410 5431 5452 5471 5486 5502 5516 5529 5550 5549 5558 5567 5600 5603 5606 5618 5627 5649 5655 5659 5659 5669 5667 5663 5672 5661 5664 5656 5662 5665 5647 5658 5654 5645 5628 5649 5663 5654 5660 5668 5661 5627 5631
5357 5354 5359 5370 5387 5411 5436 5460 5475 5493 5504 5509 5547 5575 5589 5579 5591 5609 5613 5623 5627 5634 5650 5659 5654 5658 5658 5651 5658 5655 5664 5650 5652 5638 5649 5650 5634 5645 5654 5663 5658 5657 5661 5664 5658 5657 5636
5355 5353 5354 5362 5379 5392 5423 5443 5468 5487 5490 5497 5555 5584 5595 5596 5598 5605 5613 5620 5632 5640 5645 5645 5649 5660 5663 5654 5657 5651 5658 5650 5642 5642 5642 5644 5628 5633 5631 5648 5650 5643 5654 5661 5662 5664 5662
5356 5353 5353 5360 5373 5387 5410 5436 5461 5478 5477 5510 5553 5581 5597 5589 5595 5600 5616 5627 5635 5645 5653 5659 5658 5659 5657 5658 5665 5659 5663 5664 5659 5644 5635 5634 5621 5613 5612 5621 5620 5609 5635 5648 5655 5664 5662
5359 5355 5357 5369 5376 5388 5400 5432 5452 5468 5485 5536 5554 5570 5577 5587 5603 5614 5616 5630 5636 5645 5645 5653 5661 5662 5650 5664 5660 5652 5649 5646 5646 5639 5647 5616 5614 5609 5602 5588 5587 5641 5663 5661 5654 5661 5667
5362 5361 5366 5370 5376 5389 5402 5424 5448 5469 5488 5513 5546 5556 5571 5577 5609 5605 5616 5631 5640 5648 5649 5647 5642 5656 5661 5653 5628 5615 5613 5608 5619 5630 5627 5628 5611 5598 5582 5600 5623 5635 5649 5645 5642 5640 5651
5364 5365 5368 5373 5378 5391 5409 5425 5447 5466 5487 5503 5536 5551 5566 5584 5605 5625 5623 5630 5628 5632 5625 5618 5637 5648 5650 5635 5623 5615 5609 5619 5611 5611 5619 5614 5610 5601 5591 5589 5586 5626 5637 5642 5642 5617 5635
5364 5367 5371 5375 5380 5393 5413 5432 5446 5463 5489 5504 5539 5553 5567 5582 5614 5623 5620 5622 5637 5625 5618 5618 5616 5621 5633 5615 5599 5616 5616 5634 5610 5602 5583 5590 5593 5581 5589 5582 5600 5635 5634 5633 5605 5604 5621
5364 5368 5371 5377 5382 5398 5419 5435 5452 5471 5489 5506 5545 5559 5559 5587 5614 5627 5629 5625 5629 5627 5614 5619 5613 5619 5620 5609 5606 5618 5607 5620 5621 5625 5602 5597 5591 5580 5589 5569 5572 5629 5621 5603 5613 5617 5614
5365 5369 5375 5379 5392 5416 5431 5446 5465 5480 5494 5510 5529 5548 5572 5573 5595 5612 5613 5622 5628 5637 5629 5622 5632 5629 5629 5625 5615 5617 5591 5591 5604 5599 5628 5605 5614 5606 5601 5597 5619 5623 5618 5620 5615 5607 5602